Simultaneous Nadir Overpasses (SNOs) Predictions

Prediction of SNOs between AQUA and METOP-B Satellite Orbit:

Table of predicted SNOs for the next 14.0 days since TLE Epoch: 4/23/2016
Index Date (AQUA) Time (AQUA) Lat,Lon (AQUA) SZA (AQUA ) Date (METOP-B) Time (METOP-B) Lat,Lon (METOP-B) SZA (METOP-B ) Distance(km) Time Diff (sec)
1 04/25/2016 20:46:58 73.85,-137.46 60.29 04/25/2016 20:45:52 73.85,-137.43 60.30 0.94 66
2 04/25/2016 21:36:25 -73.91, 30.05 119.66 04/25/2016 21:36:33 -73.90, 30.04 119.67 0.71 8
3 04/25/2016 22:25:56 74.11,-162.76 60.54 04/25/2016 22:27:08 74.12,-162.09 60.53 20.35 72
4 04/28/2016 16:21:10 73.85, -71.02 59.40 04/28/2016 16:20:14 73.87, -70.96 59.43 2.97 56
5 04/28/2016 17:10:37 -73.91, 96.50 120.56 04/28/2016 17:10:55 -73.93, 96.51 120.53 2.83 18
6 04/28/2016 18:00:16 74.52, -97.29 60.10 04/28/2016 18:01:22 74.54, -94.61 60.04 79.60 66
7 05/01/2016 11:55:22 73.87, -4.60 58.56 05/01/2016 11:54:37 73.85, -4.61 58.54 2.21 45
8 05/01/2016 12:44:49 -73.92, 162.92 121.40 05/01/2016 12:45:18 -73.91, 162.86 121.42 2.25 29
9 05/04/2016 07:29:32 73.84, 61.90 57.70 05/04/2016 07:28:58 73.87, 61.84 57.73 3.27 34
10 05/04/2016 08:19:00 -73.95,-130.69 122.20 05/04/2016 08:19:39 -73.93,-130.68 122.22 1.75 39
11 05/07/2016 03:03:44 73.88, 128.26 56.95 05/07/2016 03:03:20 73.89, 128.29 56.96 1.20 24
12 05/07/2016 03:53:11 -73.93, -64.21 123.01 05/07/2016 03:54:01 -73.95, -64.23 123.00 1.82 50




NCC Satellite Simultaneous Nadir Overpasses (SNOs) Prediction Service
